Meteo pe oră la Almoster

Astăzi, 24 Ianuarie, Duminică

Timp Temperatura Precipitaţii Vânt Presiune Umiditate
00:00 +8°C° 0.7 mm 2 m/s 727 mmHg 93%
01:00 +7°C° 0.1 mm 5 m/s 727 mmHg 89%
02:00 +6°C° 0.1 mm 7 m/s 727 mmHg 85%
03:00 +7°C° 0.1 mm 9 m/s 726 mmHg 81%
04:00 +6°C° 0 mm 11 m/s 727 mmHg 81%
05:00 +5°C° 0 mm 13 m/s 728 mmHg 80%
06:00 +4°C° 0 mm 14 m/s 728 mmHg 80%
07:00 +5°C° 0 mm 13 m/s 729 mmHg 75%
08:00 +5°C° 0 mm 12 m/s 730 mmHg 71%
09:00 +6°C° 0 mm 10 m/s 732 mmHg 67%
10:00 +7°C° 0 mm 11 m/s 732 mmHg 62%
11:00 +8°C° 0 mm 11 m/s 732 mmHg 58%
12:00 +8°C° 0 mm 11 m/s 733 mmHg 53%
13:00 +9°C° 0 mm 11 m/s 733 mmHg 53%
14:00 +9°C° 0 mm 11 m/s 733 mmHg 53%
15:00 +9°C° 0 mm 11 m/s 733 mmHg 54%
16:00 +8°C° 0 mm 10 m/s 733 mmHg 56%
17:00 +7°C° 0 mm 10 m/s 734 mmHg 58%
18:00 +6°C° 0 mm 9 m/s 734 mmHg 61%
19:00 +6°C° 0 mm 9 m/s 734 mmHg 62%
20:00 +6°C° 0 mm 9 m/s 735 mmHg 63%
21:00 +5°C° 0 mm 9 m/s 735 mmHg 64%
22:00 +5°C° 0 mm 9 m/s 735 mmHg 67%
23:00 +5°C° 0 mm 8 m/s 736 mmHg 69%

Mâine, 25 Ianuarie, Luni

Timp Temperatura Precipitaţii Vânt Presiune Umiditate
00:00 +4°C° 0 mm 8 m/s 736 mmHg 71%
01:00 +4°C° 0 mm 8 m/s 736 mmHg 74%
02:00 +4°C° 0 mm 7 m/s 736 mmHg 76%
03:00 +3°C° 0 mm 7 m/s 737 mmHg 79%
04:00 +3°C° 0 mm 6 m/s 737 mmHg 81%
05:00 +3°C° 0 mm 6 m/s 737 mmHg 82%
06:00 +2°C° 0 mm 5 m/s 737 mmHg 84%
07:00 +3°C° 0 mm 5 m/s 738 mmHg 81%
08:00 +4°C° 0 mm 4 m/s 739 mmHg 78%
09:00 +5°C° 0 mm 4 m/s 739 mmHg 75%
10:00 +6°C° 0 mm 4 m/s 740 mmHg 71%
11:00 +7°C° 0 mm 4 m/s 740 mmHg 66%
12:00 +9°C° 0 mm 3 m/s 740 mmHg 62%
13:00 +8°C° 0 mm 4 m/s 740 mmHg 61%
14:00 +8°C° 0 mm 4 m/s 740 mmHg 60%
15:00 +8°C° 0 mm 4 m/s 740 mmHg 59%
16:00 +9°C° 0 mm 3 m/s 740 mmHg 64%
17:00 +8°C° 0 mm 3 m/s 741 mmHg 69%
18:00 +7°C° 0 mm 3 m/s 741 mmHg 74%
19:00 +7°C° 0 mm 2 m/s 741 mmHg 77%
20:00 +6°C° 0 mm 2 m/s 742 mmHg 80%
21:00 +7°C° 0 mm 1 m/s 742 mmHg 84%
22:00 +6°C° 0 mm 1 m/s 742 mmHg 84%
23:00 +6°C° 0 mm 1 m/s 742 mmHg 84%

Poimâine, 26 Ianuarie, Marţi

Timp Temperatura Precipitaţii Vânt Presiune Umiditate
00:00 +6°C° 0 mm 1 m/s 742 mmHg 84%
01:00 +6°C° 0 mm 1 m/s 742 mmHg 83%
02:00 +6°C° 0 mm 1 m/s 742 mmHg 83%
03:00 +5°C° 0 mm 1 m/s 742 mmHg 83%
04:00 +5°C° 0 mm 1 m/s 742 mmHg 83%
05:00 +5°C° 0 mm 1 m/s 742 mmHg 83%
06:00 +5°C° 0 mm 1 m/s 742 mmHg 83%
07:00 +6°C° 0 mm 1 m/s 742 mmHg 79%
08:00 +7°C° 0 mm 1 m/s 743 mmHg 76%
09:00 +8°C° 0 mm 1 m/s 743 mmHg 73%
10:00 +9°C° 0 mm 1 m/s 743 mmHg 69%
11:00 +10°C° 0 mm 1 m/s 743 mmHg 65%
12:00 +11°C° 0 mm 1 m/s 742 mmHg 61%
13:00 +11°C° 0 mm 1 m/s 742 mmHg 63%
14:00 +10°C° 0 mm 2 m/s 742 mmHg 66%
15:00 +10°C° 0 mm 2 m/s 741 mmHg 68%
16:00 +9°C° 0 mm 2 m/s 742 mmHg 72%
17:00 +9°C° 0 mm 2 m/s 742 mmHg 75%
18:00 +8°C° 0 mm 2 m/s 742 mmHg 79%
19:00 +8°C° 0 mm 2 m/s 742 mmHg 80%
20:00 +7°C° 0 mm 2 m/s 742 mmHg 81%
21:00 +7°C° 0 mm 3 m/s 742 mmHg 82%
22:00 +7°C° 0 mm 3 m/s 742 mmHg 85%
23:00 +7°C° 0 mm 3 m/s 742 mmHg 87%

27 Ianuarie, Miercuri

Timp Temperatura Precipitaţii Vânt Presiune Umiditate
00:00 +5°C° 0 mm 3 m/s 743 mmHg 90%
01:00 +5°C° 0 mm 3 m/s 743 mmHg 90%
02:00 +7°C° 0 mm 3 m/s 743 mmHg 91%
03:00 +7°C° 0 mm 3 m/s 743 mmHg 92%
04:00 +7°C° 0 mm 3 m/s 743 mmHg 92%
05:00 +7°C° 0 mm 2 m/s 743 mmHg 92%
06:00 +7°C° 0 mm 2 m/s 743 mmHg 92%
07:00 +7°C° 0 mm 2 m/s 743 mmHg 90%
08:00 +8°C° 0 mm 2 m/s 744 mmHg 87%
09:00 +9°C° 0 mm 2 m/s 744 mmHg 85%
10:00 +10°C° 0 mm 2 m/s 744 mmHg 80%
11:00 +12°C° 0 mm 2 m/s 744 mmHg 75%
12:00 +13°C° 0 mm 2 m/s 744 mmHg 71%
13:00 +14°C° 0 mm 2 m/s 743 mmHg 70%
14:00 +14°C° 0 mm 2 m/s 743 mmHg 69%
15:00 +14°C° 0 mm 2 m/s 743 mmHg 68%
16:00 +13°C° 0 mm 2 m/s 743 mmHg 73%
17:00 +12°C° 0 mm 2 m/s 743 mmHg 77%
18:00 +11°C° 0 mm 1 m/s 743 mmHg 81%
19:00 +11°C° 0 mm 1 m/s 744 mmHg 82%
20:00 +10°C° 0 mm 1 m/s 744 mmHg 83%
21:00 +10°C° 0 mm 1 m/s 744 mmHg 84%
22:00 +10°C° 0 mm 1 m/s 744 mmHg 85%
23:00 +10°C° 0 mm 1 m/s 744 mmHg 85%

28 Ianuarie, Joi

Timp Temperatura Precipitaţii Vânt Presiune Umiditate
00:00 +10°C° 0 mm 1 m/s 744 mmHg 86%
01:00 +10°C° 0 mm 1 m/s 744 mmHg 86%
02:00 +8°C° 0 mm 2 m/s 743 mmHg 87%
03:00 +8°C° 0 mm 2 m/s 743 mmHg 87%
04:00 +8°C° 0 mm 2 m/s 743 mmHg 87%
05:00 +8°C° 0 mm 2 m/s 743 mmHg 87%
06:00 +8°C° 0 mm 2 m/s 743 mmHg 87%
07:00 +9°C° 0 mm 2 m/s 744 mmHg 84%
08:00 +10°C° 0 mm 2 m/s 744 mmHg 82%
09:00 +12°C° 0 mm 2 m/s 744 mmHg 79%
10:00 +13°C° 0 mm 3 m/s 744 mmHg 74%
11:00 +14°C° 0 mm 3 m/s 744 mmHg 69%
12:00 +16°C° 0 mm 3 m/s 744 mmHg 64%
13:00 +17°C° 0 mm 3 m/s 744 mmHg 64%
14:00 +17°C° 0 mm 4 m/s 744 mmHg 65%
15:00 +17°C° 0 mm 4 m/s 743 mmHg 65%
16:00 +16°C° 0 mm 3 m/s 743 mmHg 70%
17:00 +14°C° 0 mm 3 m/s 744 mmHg 74%
18:00 +12°C° 0 mm 3 m/s 744 mmHg 79%

29 Ianuarie, Vineri

Timp Temperatura Precipitaţii Vânt Presiune Umiditate
Arată mai mult

Formular de consimțământ

Meteoprog și furnizorii noștri de servicii pot stoca și accesa date personale, precum cookies, identificatori de dispozitiv sau alte tehnologii similare pe dispozitivul dumneavoastră și procesa astfel de date pentru a personaliza conținutul și reclamele, dar și pentru a oferi caracteristici de social media și pentru a analiza traficul.

  • Stocarea și/sau accesarea informațiilor pe dispozitivul dumneavoastră

    Cookies, identificatori de dispozitiv sau alte informații pot fi stocate sau accesate pe dispozitiv în scopurile indicate mai sus.

  • Reclame și conținut personalizat, evaluarea reclamelor și a conținutului, informații despre audiențe și dezvoltarea produselor

    Reclamele și conținutul pot fi personalizate pe baza unui profil. Pot fi adăugate date suplimentare pentru a personaliza mai bine reclamele și conținutul. Performanța reclamelor și conținutului poate fi măsurată. Pot fi obținute informații despre utilizatorii care au văzut reclamele și conținutul. Aceste date pot fi utilizate pentru a dezvolta sau îmbunătăți experiența utilizatorilor, sistemele și software-ul.

Dând clic pe ‘Sunt de acord’, permiteți utilizarea cookie-urilor menționate, a identificatorilor de dispozitiv, balizelor web sau altor tehnologii similare. Setările pot fi modificate din browser-ul dispozitivului dumneavoastră.

În anumite scopuri, interesele legitime pot prima asupra consimțământului. Puteți citi mai multe informații în acest sens în Politica privind Confidențialitatea Datelor și Cookie.